Lid_Strength_Index
-1 -1 -1 -1 -1 -1 -1 -1 -1 -1 -1 -1 -1 -1 -1 -1 -1 -1 -1 -1 -1 -1 -2 -2 -2 -2 -2 -2 -2 -2 -2 -2 -2 -1 -1 -1 -1 -1 -1 -1 -1 -1 -1
-1 -1 -1 -1 -1 -1 -1 -1 -1 -1 -1 -1 -1 -1 -1 -1 -1 -1 -1 -1 -1 -1 -1 -2 -2 -2 -2 -2 -2 -2 -2 -2 -2 -2 -2 -1 -1 -1 -1 -1 -1 -1 -1
-1 -1 -1 -1 -1 -2 -1 -1 -1 -1 -0 -1 -0 -1 -1 -1 -1 -1 -1 -1 -2 -1 -1 -1 -2 -2 -2 -2 -2 -2 -2 -2 -2 -2 -2 -2 -2 -1 -2 -2 -1 -1 -1
-2 -1 -1 -1 -1 -1 -1 -1 -0 -0 0 0 -0 -0 -0 -1 -1 -1 -1 -1 -1 -1 -2 -3 -1 -2 -1 -2 -2 -2 -2 -2 -2 -2 -2 -2 -2 -2 -2 -2 -2 -1 -1
-1 -1 -1 -1 -2 -1 -1 -0 -0 -0 1 -0 -0 -0 -0 -0 -0 -1 -1 -1 -2 -1 -2 -3 -4 -3 -1 -1 -2 -2 -2 -2 -2 -2 -2 -2 -2 -2 -2 -2 -2 -2 -2
-1 -1 -1 -1 -1 -0 -0 -0 -0 -0 0 0 1 1 0 -0 -0 -0 -1 -1 -1 -2 -2 -2 -1 -1 -1 -1 -2 -2 -2 -2 -2 -2 -2 -2 -2 -2 -2 -1 -1 -1 -2
-1 -1 -1 -1 -0 0 0 -0 0 0 1 0 1 2 0 -0 -0 -0 -0 -1 -1 -1 -1 -1 -2 -1 -1 -3 -2 -2 -2 -2 -2 -2 -2 -2 -2 -2 -2 -2 -1 -1 -1
-2 -1 -1 -0 -0 1 0 -0 0 1 1 0 3 2 4 2 1 0 -0 -0 -1 -0 -0 -2 -2 -2 -2 -2 -2 -1 -2 -2 -2 -2 -2 -2 -2 -2 -2 -2 -2 -2 -1
-1 -1 -1 -0 -0 0 1 2 1 1 2 1 1 3 4 5 3 1 -0 1 -1 -0 -1 -1 -1 -2 -2 -2 -2 -2 -1 -1 -2 -2 -2 -2 -2 -2 -2 -2 -2 -2 -2
-1 -1 -1 -1 -1 -0 0 -0 0 1 1 2 1 1 1 1 5 4 1 1 -0 -0 -1 -1 -1 -2 -2 -1 -2 -1 -1 -1 -2 -2 -2 -2 -2 -2 -2 -1 -1 -1 -1
-0 -1 -1 -0 -0 -0 0 2 2 1 2 2 3 1 1 1 1 3 5 3 1 0 -0 -1 -1 -1 -2 -2 -1 -2 -2 -1 -1 -1 -1 -1 -1 -1 -1 -1 -1 -1 -1
0 -0 -0 -0 -1 -1 -0 0 1 1 1 0 0 1 2 2 3 3 3 3 3 1 -0 -1 -1 -1 -1 -1 -2 -2 -2 -1 -0 -0 -0 -0 -1 -0 -0 -0 -0 -0 -0
1 0 -0 -0 -0 -0 0 1 1 1 0 1 -0 1 1 1 1 1 2 3 3 2 1 -0 -1 -1 -1 -1 -2 -2 -2 -1 -0 -0 0 0 -0 0 0 1 1 0 0
1 -0 -0 -1 1 0 1 1 1 1 0 0 0 0 1 1 0 1 2 3 4 3 2 1 -0 -1 -1 -1 -1 -2 -1 -1 -1 -0 0 0 -0 -0 0 1 1 1 1
0 -0 -0 0 1 1 1 -0 1 -0 0 0 0 0 0 0 -0 0 1 1 3 5 4 1 1 -1 -1 -1 -2 -2 -1 -1 -1 -1 0 1 1 0 1 1 1 1 1
-1 0 0 1 2 1 1 0 0 0 0 1 0 0 0 0 0 0 0 0 1 2 4 1 1 -0 -1 -1 -2 -2 -2 -1 -1 -0 1 1 1 1 0 0 1 2 3
0 1 1 2 1 1 0 0 1 1 1 0 0 1 1 0 1 1 0 1 1 1 3 2 1 -0 -0 -0 -1 -2 -1 -2 -0 1 1 0 1 1 1 1 1 2 3
1 2 2 2 2 1 1 1 2 1 1 1 1 1 1 1 0 0 1 0 1 0 2 3 1 1 0 -1 -1 -0 -0 0 0 0 1 0 0 2 2 2 2 3 4
2 3 3 2 2 1 1 1 1 1 1 1 1 1 2 1 1 1 1 1 1 1 1 2 2 0 0 -0 0 -0 -0 -0 1 0 1 0 1 1 2 2 2 3 4
3 3 2 2 2 1 1 1 1 1 1 0 0 1 1 2 3 2 2 2 2 2 1 3 3 2 1 0 1 3 3 2 1 1 0 1 1 1 1 2 2 3 4
3 2 2 2 2 3 5 4 1 1 1 1 1 2 2 4 5 5 5 4 4 4 4 4 4 4 4 4 4 4 5 3 2 2 2 2 1 1 2 2 2 4 5
2 3 2 3 3 5 10 9 5 1 1 2 2 2 3 4 5 5 5 5 5 5 5 5 5 6 5 5 5 6 5 6 7 3 3 3 2 3 3 3 5 5 6
3 3 3 3 4 5 11 10 8 1 2 2 2 3 4 5 8 8 7 5 4 5 5 5 6 6 7 6 6 6 6 6 6 4 4 6 4 4 3 3 5 6 6
3 4 4 4 5 7 11 11 9 2 3 3 4 4 4 6 10 10 8 6 6 5 6 7 7 7 6 5 5 5 5 5 5 5 4 8 5 6 5 4 5 6 6
4 4 3 4 5 7 11 10 8 2 3 4 4 6 7 8 12 11 8 7 7 7 7 6 8 9 9 9 8 6 7 7 8 7 5 7 7 7 6 6 5 5 7
3 4 5 5 6 6 11 11 9 3 4 4 4 8 11 11 12 12 9 8 9 8 7 6 5 5 5 4 6 5 5 8 7 8 6 8 8 8 9 6 6 6 7